Weather Roundup
Issued by NWS Chicago, IL

Home | Current Version | Previous Version | Graphics & Text | Print | Product List | Glossary On
Versions: 1 2 3 4 5 6 7 8 9 10 11 12 13 14 15 16 17 18 19 20 21 22 23 24 25 26 27 28 29 30 31 32 33 34 35 36 37 38 39 40 41 42 43 44 45 46 47 48 49 50
761
NZUS59 KLOT 081608
HRRLOT

CHICAGO AREA WEATHER ROUNDUP
NATIONAL WEATHER SERVICE CHICAGO/ROMEOVILLE IL
1000 AM CST MON FEB 08 2016

NOTE: "FAIR" INDICATES FEW OR NO CLOUDS BELOW 12,000 FEET WITH NO
SIGNIFICANT WEATHER AND/OR OBSTRUCTIONS TO VISIBILITY.

* THESE STATIONS ARE NOT UNDER NWS QUALITY CONTROL. THEY ALSO MAY NOT
  REPORT WEATHER SUCH AS PRECIPITATION OR FOG.

ILZ005-006-012>014-019>023-081700-
NORTHEAST ILLINOIS

CITY           SKY/WX    TMP DP  RH WIND       PRES   REMARKS
OHARE          CLOUDY    29  23  78 W10       29.65R WCI  20
MIDWAY         CLOUDY    31  20  63 W12       29.66R WCI  22
AURORA         CLOUDY    27  22  81 W17       29.69R WCI  14
LANSING*       CLOUDY    30  24  76 W14       29.67R WCI  20
JOLIET*        CLOUDY    29  23  78 W10G18    29.70R WCI  20
WAUKEGAN       CLOUDY    28  24  85 W6        29.64R WCI  22
DUPAGE AIRPORT CLOUDY    27  20  75 W13       29.67R WCI  16
WHEELING       CLOUDY    29  22  75 W12       29.66R WCI  19
KANKAKEE*      CLOUDY    29  22  75 W10       29.70R WCI  20
MORRIS*        CLOUDY    26  21  81 W18       29.69R WCI  13
LEWIS AIRPORT* FLURRIES  28  22  81 W16       29.68S WCI  16
$$

WIZ051-052-058>065-066-070>072-081700-
SOUTHEAST WISCONSIN

CITY           SKY/WX    TMP DP  RH WIND       PRES   REMARKS
MILWAUKEE      LGT SNOW  29  25  85 NW12      29.63R WCI  19
KENOSHA*       CLOUDY    30  25  81 NW10      29.64R WCI  21
RACINE*        FLURRIES  30  23  75 NW10      29.65R WCI  21
BURLINGTON     CLOUDY    27  23  85 NW10      29.65R WCI  17
WAUKESHA       CLOUDY    25  23  93 W10G16    29.65R VSB 1/4 WCI  15
WEST BEND      CLOUDY    28  21  74 W13       29.63R WCI  18
$$

INZ001>003-010>013-019-020-081700-
NORTHWEST INDIANA

CITY           SKY/WX    TMP DP  RH WIND       PRES   REMARKS
GARY*          CLOUDY    34  21  60 W10       29.67R WCI  26
MICHIGAN CITY* NOT AVBL
RENSSELAER*    NOT AVBL
VALPARAISO     CLOUDY    32  28  85 NW13      29.65R WCI  22
$$

LMZ740>746-081700-
SOUTHERN LAKE MICHIGAN

STATION/POSITION TIME  SKY/WX   TEMP WIND        PRES    VSBY
                                AIR  DIR/SP/G
                 (UTC)          (F)  (DEG/KT/KT) (MB)    (MI)
HARRISON CRIB    1500            32  270/ 17/ 19   N/A
BURNHAM HARBOR   1600            31  240/ 10/ 13   N/A
CALUMET HARBOR   1500            31  260/  5/ 10 1003.5R
BURNS HARBOR     1500            32  290/ 12/ 15 1004.4S
MICHIGAN CITY    1500            32  240/ 13/ 16   N/A
$$

ABBREVIATIONS USED IN REMARKS
   TC - TEMPERATURE IN CELSIUS
  WCI - WIND CHILL INDEX
   HX - HEAT INDEX
  VSB - VISIBILITY
$$




USA.gov is the U.S. government's official web portal to all federal, state and local government web resources and services.